Location: *
(48.8667°N, 2.3331°E)
Time: 08:38:31
(UTC+00:00)

Cosmos 2061 Rocket - Pass Details

Date: 17 August 2020
Orbit: 966 x 1012 km, 82.9° (Epoch: 23 September)

Event Time Altitude Azimuth Distance (km) Brightness Sun altitude
Exits shadow 20:03:56 12° 113° (ESE) 2,571 5.6 -9.9°
Maximum altitude 20:07:11 17° 79° (ENE) 2,213 5.5 -10.4°
Drops below altitude 10° 20:11:02 10° 40° (NE) 2,718 6.3 -10.9°
Sets 20:14:25 0° 22° (NNE) 3,673 7.2 -11.4°
